Location: Unspecified
(0.0000°N, 0.0000°E)
Time: 11:27:10
(UTC+00:00)

N. Korean satellite - Visible Passes

Search period start: 14 October 2019 00:00
Search period end: 24 October 2019 00:00
Orbit: 455 x 508 km, 97.2° (Epoch: 13 October)

Date Brightness Start Highest point End Pass type
(mag) Time Alt. Az. Time Alt. Az. Time Alt. Az.
16 Oct 8.7 05:08:54 10° NE 05:12:13 33° E 05:15:35 10° SSE visible
17 Oct 10.2 04:45:09 10° ENE 04:47:02 14° ESE 04:48:54 10° SE visible
17 Oct 9.5 18:04:54 10° SSW 18:07:42 23° W 18:10:29 10° NW visible
20 Oct 9.3 05:01:24 10° NE 05:04:28 25° E 05:07:35 10° SSE visible
20 Oct 10.4 18:23:44 10° SW 18:25:07 12° WSW 18:26:29 10° WNW visible
21 Oct 10.7 04:38:46 10° E 04:39:17 10° ESE 04:39:47 10° ESE visible
